Location: Zagreb
(45.8000°N, 16.0000°E)
Time: 17:13:16
(UTC+01:00)

N. Korean satellite - Visible Passes

Search period start: 03 December 2021 00:00
Search period end: 13 December 2021 00:00
Orbit: 447 x 495 km, 97.3° (Epoch: 02 December)

Date Brightness Start Highest point End Pass type
(mag) Time Alt. Az. Time Alt. Az. Time Alt. Az.
03 Dec 8.2 04:46:25 10° NNE 04:49:31 32° E 04:52:35 10° SSE visible
03 Dec 8.0 06:20:18 10° NNW 06:22:27 16° WNW 06:24:36 10° WSW visible
03 Dec 8.8 16:55:40 10° SSW 16:58:48 30° W 17:01:57 10° NNW visible
04 Dec 9.5 04:18:47 10° NE 04:20:50 15° E 04:22:51 10° SE visible
04 Dec 7.0 05:51:03 10° N 05:54:09 33° WNW 05:57:12 10° SW visible
05 Dec 6.2 05:22:19 10° N 05:25:43 80° WNW 05:29:04 10° SSW visible
05 Dec 10.0 17:33:58 10° WSW 17:35:12 11° W 17:36:26 10° WNW visible
06 Dec 7.7 04:53:55 10° NNE 04:57:09 41° E 05:00:21 10° S visible
06 Dec 8.2 06:28:18 10° NW 06:29:59 13° WNW 06:31:41 10° W visible
06 Dec 9.2 17:03:33 10° SSW 17:06:27 24° W 17:09:22 10° NW visible
07 Dec 9.2 04:26:01 10° NE 04:28:28 18° E 04:30:54 10° SE visible
07 Dec 7.3 05:58:47 10° N 06:01:41 27° WNW 06:04:34 10° SW visible
08 Dec 6.3 05:29:53 10° N 05:33:15 62° WNW 05:36:35 10° SSW visible
09 Dec 7.2 05:01:22 10° NNE 05:04:41 52° E 05:08:00 10° S visible
09 Dec 8.4 06:36:27 10° NW 06:37:26 11° WNW 06:38:26 10° W visible
09 Dec 9.5 17:11:25 10° SW 17:14:01 20° W 17:16:37 10° NW visible
10 Dec 8.9 04:33:16 10° NE 04:36:01 23° E 04:38:45 10° SSE visible
10 Dec 7.6 06:06:26 10° NNW 06:09:34 22° W 06:11:49 10° WSW visible
10 Dec 7.9 16:41:59 10° S 16:45:19 43° W 16:48:38 10° NNW visible
11 Dec 9.9 04:07:24 10° E 04:07:24 10° E 04:07:53 10° ESE visible
11 Dec 7.0 05:37:24 10° N 05:41:32 38° WSW 05:43:58 10° SSW visible
12 Dec 7.4 05:13:11 40° S 05:13:11 40° S 05:15:30 10° S visible
12 Dec 9.6 17:19:18 10° SW 17:21:30 16° W 17:23:42 10° NW visible
